Current Version              Previous Version:    01  02  03  04  05  06  07  08  09  10  11  12  13  14  15  16  17  18  19  20  21  22  23  24  25  26  27  28  29  30  
   31  32  33  34  35  36  37  38  39  40  41  42  43  44  45  46  47  48  49  50  51  52  53  54  55  56  57  58  59  60  

[Printable]
882
ASUS44 KLUB 220901
RWRTX
WEST TEXAS WEATHER ROUNDUP
NATIONAL WEATHER SERVICE LUBBOCK TX
400 AM CDT WED OCT 22 2014

NOTE: "FAIR" INDICATES FEW OR NO CLOUDS BELOW 12,000 FEET WITH NO
SIGNIFICANT WEATHER AND/OR OBSTRUCTIONS TO VISIBILITY.

TXZ004-006>008-010-012-014-016-OKZ002-221000-
TEXAS PANHANDLE/OKLAHOMA PANHANDLE

CITY           SKY/WX    TMP DP  RH WIND       PRES   REMARKS
AMARILLO       CLOUDY    59  52  77 S9        30.09S
BORGER         PTCLDY    61  50  67 CALM      30.06F
CANADIAN       CLEAR     56  51  82 W5        30.05S
DALHART        CLOUDY    59  55  87 SW12      30.08S
DUMAS          MOCLDY    58  55  87 S8        30.07S
GUYMON         MOCLDY    57  50  77 S8        30.03S
HEREFORD       CLOUDY    61  59  92 MISG      30.09F
PAMPA          PTCLDY    53  48  82 S8        30.08S
$$

TXZ026-029-035-045-048-221000-
SOUTHERN PANHANDLE/SOUTH PLAINS/ROLLING PLAINS

CITY           SKY/WX    TMP DP  RH WIND       PRES   REMARKS
CHILDRESS      CLEAR     58  49  72 S9        30.07S
LUBBOCK        CLOUDY    63  50  62 S7        30.09S
SNYDER         CLOUDY    63  53  70 SE8       30.08S
$$

TXZ052-054-060>062-072-078-127-140-154-169-221000-
PERMIAN BASIN/CONCHO VALLEY/BIG COUNTRY/EDWARDS PLATEAU

CITY           SKY/WX    TMP DP  RH WIND       PRES   REMARKS
ABILENE        MOCLDY    64  48  56 S9        30.07F
BIG SPRING     CLOUDY    64  58  81 E3        30.09F
JUNCTION       CLOUDY    67  47  48 SE7       30.06F
MIDLAND        CLOUDY    66  59  78 S9        30.07S
ODESSA         CLOUDY    65  58  78 S9        30.08S
SAN ANGELO     CLOUDY    68  48  48 SE6       30.06S
SONORA         CLOUDY    64  55  72 SE3       30.10S
WINK           CLOUDY    64  62  93 SE8       30.04F
$$

TXZ055-058-074-075-080-082-221000-
FAR WEST/SOUTHWEST MOUNTAINS/TRANS PECOS

CITY           SKY/WX    TMP DP  RH WIND       PRES   REMARKS
ALPINE         CLOUDY    60  57  89 CALM      30.15S
DRYDEN           N/A     65  64  97 E6        30.02F
EL PASO        MOCLDY    61  55  81 CALM      30.06S
FORT STOCKTON  MOCLDY    60  58  92 E7        30.06F
MARFA          CLOUDY    57  55  94 CALM      30.14S
PRESIDIO       PTSUNNY   65  60  83 MISG      30.03S
$$

TXZ014-016-019-021>030-083-221000
TEXAS TECH WEST TEXAS MESONET/TEXAS PANHANDLE/NORTHERN SOUTH PLAINS

CITY           SKY/WX    TMP DP  RH WIND       PRES   REMARKS
ABERNATHY 5ENE   N/A     56  52  85 S6        30.10F
AMARILLO 9NNE    N/A     59  53  79 SE7       30.07S
AMARILLO 7SSE    N/A     58  53  83 S5        30.10S
AMHERST 1NE      N/A     60  55  83 S3        30.10S
BOOTLEG 11WNW    N/A     57  55  91 S9        30.12S
CANADIAN 6E      N/A     57  50  78 S5        30.05R
CAPROCK CYN SP   N/A     62  51  66 S7        30.08S
CHILDRESS 2NNE   N/A     57  49  75 S10       30.07R
CLARENDON 2WSW   N/A     58  49  73 S6        30.08S
CLAUDE 12SW      N/A     61  51  69 SE5       30.09S
DIMMITT 2NE      N/A     59  54  82 S7        30.10S
FLOYDADA 2NNE    N/A     55  49  80 S6        30.09S
FRIONA 2NE       N/A     59  54  85 S7        30.11S
GOODLETT 3W      N/A     56  47  70 S5        30.06R
HART 3N          N/A     60  53  76 S7        30.10S
HEREFORD 2NW     N/A     59  54  84 S6        30.09S
MCLEAN 1E        N/A     55  48  77 SE7       30.06S
MEMPHIS 1NE      N/A     51  46  81 NW1       30.07S
MULESHOE 2SSW    N/A     58  56  92 S2        30.10S
OLTON 6S         N/A     60  51  74 S6        30.09S
PALO DURO SP     N/A     60  52  73 S5        30.10S
PAMPA 2E         N/A     54  48  81 S7        30.07F
PLAINVIEW 1S     N/A     58  53  81 S5        30.09S
SILVERTON 7ESE   N/A     60  49  67 S6        30.09F
TULIA 2ENE       N/A     57  52  84 S2        30.09S
TURKEY 2WSW      N/A     56  50  81 SE6       30.07S
UMBARGER 3NNE    N/A     58  55  88 S6        30.10S
$$

TXZ033>036-039>041-045>048-221000
TEXAS TECH WEST TEXAS MESONET/SOUTH PLAINS

CITY           SKY/WX    TMP DP  RH WIND       PRES   REMARKS
AIKEN 3WSW       N/A     57  51  81 S7        30.10F
ANDREWS 2NE      N/A     63  57  81 S2        30.09S
ANTON 6SSW       N/A     60  53  78 S2        30.09S
BROWNFIELD 2S    N/A     60  56  87 S6        30.10R
DENVR CTY 7WNW   N/A     59  56  91 SE3       30.09S
GAIL 2ESE        N/A     61  52  73 SE3       30.07S
LAMESA 2SE       N/A     60  56  87 S1        30.09S
LEVELLAND 4S     N/A     59  53  78 S5        30.09F
LUBBOCK 3WNW     N/A     63  50  62 S6        30.09S
MORTON 1ENE      N/A     59  57  95 S3        30.10S
ODONNELL 1N      N/A     59  53  79 S2        30.09S
PLAINS 3N        N/A     60  56  88 S6        30.10S
RALLS 1SE        N/A     55  50  81 SE6       30.10S
REESE CENTER     N/A     61  51  70 S7        30.09S
SEMINOLE 2NNE    N/A     61  58  90 SE2       30.09S
SLATON 2NE       N/A     59  51  76 S5        30.09S
SNYDER 3E        N/A     61  53  74 SE9       30.07S
SUNDOWN 8SW      N/A     60  56  87 S3        30.10S
TAHOKA 3NNE      N/A     60  52  76 S3        30.08S
WOLFFORTH 6SSW   N/A     61  54  76 S5        30.09S
$$

TXZ031-032-036>038-042>044-221000-
TEXAS TECH WEST TEXAS MESONET/ROLLING PLAINS

CITY           SKY/WX    TMP DP  RH WIND       PRES   REMARKS
ASPERMONT 3NE    N/A     59  50  73 SE6       30.06S
FLUVANNA 3WNW    N/A     62  51  69 SE7       30.08R
GRAHAM 5SSW      N/A     61  50  67 SE5       30.08S
GUTHRIE 10WSW    N/A     57  50  78 S5        30.06S
HASKELL 1NW      N/A     60  49  65 SE2       30.06S
JAYTON 1SSE      N/A     61  51  70 SE6       30.07S
KNOX CITY 3NW    N/A     60  49  68 S6        30.06S
LK A HENRY 1NW   N/A     63  52  67 SE3       30.07S
NORTHFIELD 1S    N/A     60  51  72 S7        30.06S
ODELL 4ENE       N/A     61  51  69 SE9       30.06S
PADUCAH 10SW     N/A     55  50  81 S7        30.07R
POST 1NE         N/A     62  51  66 S2        30.07F
RRING SPRGS 3N   N/A     56  50  81 S5        30.08S
SEYMOUR 3NW      N/A     58  50  74 SE6       30.06S
SPUR 1W          N/A     53  49  85 N2        30.07S
WEINERT 2NNE     N/A     60  49  66 S7        30.06S
WHITE RVR 6NE    N/A     59  50  72 NE3       30.08S
$$

TXZ052-054-060>062-072-078-127-140-154-169-221000-
TEXAS TECH WEST TEXAS MESONET/PERMIAN BASIN/
CONCHO VALLEY/BIG COUNTRY/EDWARDS PLATEAU

CITY           SKY/WX    TMP DP  RH WIND       PRES   REMARKS
COYANOSA 2N      N/A     64  61  90 E7        30.06S
JUNCTION 1SSW    N/A     67  47  49 CALM      30.06F
MERTZON 3NNE     N/A     67  52  59 S7        30.08S
SAN ANGELO 7NW   N/A     67  49  52 SE5       30.07S
STRLNG CT 4WSW   N/A     68  55  62 SE6       30.08S
ST LAWRNCE 5SW   N/A     64  58  81 SE5       30.08R
SWEETWATR 11SW   N/A     64  51  61 SE12      30.08F
WALL 1E          N/A     65  50  58 SE6       30.07S
$$

TXZ055-058-074-075-080-082-221000-
TEXAS TECH WEST TEXAS MESONET/FAR WEST/SOUTHWEST MOUNTAINS/TRANS PECOS

CITY           SKY/WX    TMP DP  RH WIND       PRES   REMARKS
PRSMN GAP BBNP   N/A     63  61  93 N10       30.04F
GUADLPE MTN NP   N/A     56  52  87 SW6       30.16S
$$